| time (UTC) | temp F | wind direction | speed MPH | gust MPH | rain 1hr in | rain 24hr in | rain mn in | humidity % | barometer mb |
| 20260510153035 | 52 | 98 | 5.0 | 11.0 | 0.00 | 0.00 | 0.00 | 46 | 1022.3 |
| 20260510151524 | 52 | 78 | 5.0 | 11.0 | 0.00 | 0.00 | 0.00 | 46 | 1022.3 |
| 20260510150028 | 51 | 76 | 5.0 | 12.0 | 0.00 | 0.00 | 0.00 | 48 | 1022.2 |
| 20260510144528 | 50 | 83 | 5.0 | 13.0 | 0.00 | 0.00 | 0.00 | 51 | 1022.3 |
| 20260510143022 | 48 | 81 | 4.0 | 12.0 | 0.00 | 0.00 | 0.00 | 53 | 1022.2 |
| 20260510141526 | 48 | 114 | 6.0 | 12.0 | 0.00 | 0.00 | 0.00 | 53 | 1022.2 |
| 20260510140029 | 47 | 57 | 6.0 | 12.0 | 0.00 | 0.00 | 0.00 | 54 | 1022.1 |
| 20260510134518 | 46 | 63 | 4.0 | 10.0 | 0.00 | 0.00 | 0.00 | 57 | 1022.0 |
| 20260510133024 | 45 | 82 | 5.0 | 12.0 | 0.00 | 0.00 | 0.00 | 61 | 1021.7 |
| 20260510131502 | 44 | 51 | 4.0 | 12.0 | 0.00 | 0.00 | 0.00 | 63 | 1021.6 |
| 20260510130003 | 42 | 29 | 5.0 | 9.0 | 0.00 | 0.00 | 0.00 | 64 | 1021.3 |
| 20260510124503 | 40 | 34 | 3.0 | 9.0 | 0.00 | 0.00 | 0.00 | 68 | 1021.0 |
| 20260510123005 | 38 | 46 | 4.0 | 9.0 | 0.00 | 0.00 | 0.00 | 70 | 1021.0 |
| 20260510121504 | 36 | 24 | 4.0 | 10.0 | 0.00 | 0.00 | 0.00 | 73 | 1020.6 |
| 20260510120004 | 36 | 42 | 4.0 | 11.0 | 0.00 | 0.00 | 0.00 | 73 | 1020.3 |
| 20260510114504 | 36 | 30 | 3.0 | 8.0 | 0.00 | 0.00 | 0.00 | 72 | 1020.0 |
| 20260510113009 | 36 | 28 | 2.0 | 8.0 | 0.00 | 0.00 | 0.00 | 71 | 1019.9 |
| 20260510111506 | 36 | 26 | 3.0 | 8.0 | 0.00 | 0.00 | 0.00 | 70 | 1019.6 |
| 20260510110006 | 36 | 24 | 2.0 | 8.0 | 0.00 | 0.00 | 0.00 | 69 | 1019.4 |
| 20260510104504 | 36 | 28 | 3.0 | 6.0 | 0.00 | 0.00 | 0.00 | 67 | 1019.1 |
| 20260510103010 | 36 | 51 | 1.0 | 4.0 | 0.00 | 0.00 | 0.00 | 68 | 1018.9 |
| 20260510101511 | 35 | 51 | 1.0 | 5.0 | 0.00 | 0.00 | 0.00 | 68 | 1018.8 |
| 20260510100011 | 36 | 55 | 1.0 | 8.0 | 0.00 | 0.00 | 0.00 | 68 | 1018.7 |
| 20260510094510 | 37 | 87 | 4.0 | 7.0 | 0.00 | 0.00 | 0.00 | 66 | 1018.7 |
| 20260510093009 | 37 | 38 | 1.0 | 3.0 | 0.00 | 0.00 | 0.00 | 65 | 1018.0 |
| 20260510091511 | 38 | 38 | 0.0 | 10.0 | 0.00 | 0.00 | 0.00 | 65 | 1017.8 |
| 20260510090011 | 38 | 341 | 0.0 | 4.0 | 0.00 | 0.00 | 0.00 | 65 | 1017.6 |
| 20260510084512 | 38 | 340 | 0.0 | 4.0 | 0.00 | 0.00 | 0.00 | 66 | 1017.6 |
| 20260510083012 | 38 | 343 | 0.0 | 2.0 | 0.00 | 0.01 | 0.00 | 66 | 1017.5 |
| 20260510081519 | 38 | 343 | 0.0 | 2.0 | 0.00 | 0.02 | 0.00 | 66 | 1017.3 |
| 20260510080015 | 39 | 343 | 0.0 | 2.0 | 0.00 | 0.02 | 0.00 | 67 | 1017.2 |
| 20260510074518 | 39 | 343 | 0.0 | 4.0 | 0.00 | 0.02 | 0.00 | 68 | 1017.2 |
| 20260510073012 | 38 | 24 | 0.0 | 0.0 | 0.00 | 0.02 | 0.00 | 71 | 1017.0 |
| 20260510071518 | 38 | 24 | 0.0 | 0.0 | 0.00 | 0.02 | 0.00 | 70 | 1016.8 |
| 20260510070027 | 39 | 24 | 0.0 | 0.0 | 0.00 | 0.02 | 0.00 | 68 | 1016.9 |
| 20260510064524 | 39 | 24 | 0.0 | 0.0 | 0.00 | 0.02 | 0.00 | 67 | 1016.8 |
| 20260510063015 | 41 | 24 | 0.0 | 0.0 | 0.00 | 0.02 | 0.00 | 64 | 1016.8 |
| 20260510061518 | 41 | 24 | 0.0 | 0.0 | 0.00 | 0.02 | 0.00 | 63 | 1016.8 |
| 20260510060023 | 41 | 24 | 0.0 | 1.0 | 0.00 | 0.02 | 0.00 | 64 | 1016.9 |
| 20260510054525 | 41 | 24 | 0.0 | 0.0 | 0.00 | 0.02 | 0.00 | 63 | 1016.8 |
| 20260510053014 | 42 | 24 | 0.0 | 0.0 | 0.00 | 0.02 | 0.00 | 62 | 1016.6 |
| 20260510051523 | 42 | 24 | 0.0 | 0.0 | 0.00 | 0.02 | 0.00 | 62 | 1016.5 |
| 20260510050023 | 41 | 24 | 0.0 | 0.0 | 0.00 | 0.02 | 0.00 | 63 | 1016.5 |
| 20260510044524 | 42 | 24 | 0.0 | 0.0 | 0.00 | 0.02 | 0.02 | 61 | 1016.5 |
| 20260510043024 | 43 | 24 | 0.0 | 0.0 | 0.00 | 0.02 | 0.02 | 59 | 1016.4 |
| 20260510041521 | 44 | 24 | 0.0 | 0.0 | 0.00 | 0.02 | 0.02 | 56 | 1016.4 |
| 20260510040005 | 45 | 24 | 0.0 | 0.0 | 0.00 | 0.02 | 0.02 | 55 | 1016.2 |
| 20260510034509 | 46 | 24 | 0.0 | 0.0 | 0.00 | 0.02 | 0.02 | 52 | 1016.1 |
| 20260510033019 | 47 | 24 | 0.0 | 0.0 | 0.00 | 0.02 | 0.02 | 51 | 1016.0 |
| 20260510031524 | 48 | 24 | 0.0 | 0.0 | 0.00 | 0.02 | 0.02 | 48 | 1015.9 |
| 20260510030005 | 49 | 24 | 0.0 | 0.0 | 0.00 | 0.02 | 0.02 | 45 | 1015.8 |
| 20260510024509 | 51 | 24 | 0.0 | 0.0 | 0.00 | 0.02 | 0.02 | 42 | 1015.6 |
| 20260510023016 | 52 | 24 | 0.0 | 0.0 | 0.00 | 0.02 | 0.02 | 40 | 1015.5 |
| 20260510021522 | 54 | 24 | 0.0 | 1.0 | 0.00 | 0.02 | 0.02 | 39 | 1015.3 |
| 20260510020008 | 55 | 24 | 0.0 | 4.0 | 0.00 | 0.02 | 0.02 | 38 | 1015.1 |
| 20260510014520 | 56 | 24 | 1.0 | 4.0 | 0.00 | 0.02 | 0.02 | 37 | 1015.0 |
| 20260510013020 | 57 | 24 | 1.0 | 5.0 | 0.00 | 0.02 | 0.02 | 35 | 1014.6 |
| 20260510011533 | 58 | 24 | 2.0 | 8.0 | 0.00 | 0.02 | 0.02 | 33 | 1014.6 |
| 20260510010037 | 58 | 26 | 3.0 | 8.0 | 0.00 | 0.02 | 0.02 | 33 | 1014.5 |
| 20260510004527 | 59 | 21 | 3.0 | 10.0 | 0.00 | 0.02 | 0.02 | 32 | 1014.5 |
| 20260510003021 | 59 | 9 | 5.0 | 12.0 | 0.00 | 0.02 | 0.02 | 31 | 1014.3 |
| 20260510001526 | 59 | 355 | 8.0 | 14.0 | 0.00 | 0.02 | 0.02 | 31 | 1014.2 |
| 20260510000029 | 60 | 11 | 3.0 | 12.0 | 0.00 | 0.02 | 0.02 | 30 | 1014.3 |
| 20260509234526 | 60 | 29 | 6.0 | 14.0 | 0.00 | 0.02 | 0.02 | 30 | 1014.2 |
| 20260509233019 | 62 | 28 | 8.0 | 13.0 | 0.00 | 0.02 | 0.02 | 28 | 1014.1 |
| 20260509231531 | 62 | 5 | 4.0 | 15.0 | 0.00 | 0.02 | 0.02 | 29 | 1014.1 |
| 20260509230028 | 62 | 19 | 8.0 | 14.0 | 0.00 | 0.02 | 0.02 | 29 | 1014.0 |
| 20260509224529 | 62 | 34 | 8.0 | 14.0 | 0.00 | 0.02 | 0.02 | 28 | 1014.0 |
| 20260509223023 | 61 | 14 | 2.0 | 15.0 | 0.00 | 0.02 | 0.02 | 29 | 1014.0 |
| 20260509221524 | 61 | 10 | 3.0 | 13.0 | 0.00 | 0.02 | 0.02 | 29 | 1014.1 |
| 20260509220013 | 62 | 19 | 4.0 | 11.0 | 0.00 | 0.02 | 0.02 | 30 | 1014.1 |
| 20260509214520 | 62 | 36 | 8.0 | 15.0 | 0.00 | 0.02 | 0.02 | 29 | 1014.2 |
| 20260509213005 | 61 | 30 | 9.0 | 16.0 | 0.00 | 0.02 | 0.02 | 29 | 1014.2 |
| 20260509211506 | 61 | 36 | 8.0 | 17.0 | 0.00 | 0.02 | 0.02 | 30 | 1014.2 |
| 20260509210016 | 61 | 11 | 6.0 | 13.0 | 0.00 | 0.02 | 0.02 | 31 | 1014.1 |
| 20260509204520 | 61 | 5 | 7.0 | 16.0 | 0.00 | 0.02 | 0.02 | 29 | 1014.1 |
| 20260509203003 | 61 | 11 | 3.0 | 15.0 | 0.00 | 0.02 | 0.02 | 30 | 1014.1 |
| 20260509201508 | 60 | 9 | 5.0 | 13.0 | 0.00 | 0.02 | 0.02 | 31 | 1014.1 |
| 20260509200018 | 60 | 355 | 9.0 | 16.0 | 0.00 | 0.02 | 0.02 | 33 | 1014.1 |
| 20260509194520 | 60 | 67 | 6.0 | 14.0 | 0.00 | 0.02 | 0.02 | 32 | 1014.0 |
| 20260509193026 | 59 | 36 | 7.0 | 16.0 | 0.00 | 0.02 | 0.02 | 37 | 1014.2 |
| 20260509191512 | 58 | 54 | 6.0 | 14.0 | 0.00 | 0.02 | 0.02 | 35 | 1014.0 |
| 20260509190035 | 58 | 19 | 6.0 | 14.0 | 0.00 | 0.02 | 0.02 | 35 | 1014.1 |
| 20260509184532 | 58 | 10 | 8.0 | 15.0 | 0.00 | 0.02 | 0.02 | 34 | 1014.1 |
| 20260509183029 | 57 | 26 | 8.0 | 13.0 | 0.00 | 0.02 | 0.02 | 35 | 1014.0 |
| 20260509181513 | 58 | 346 | 9.0 | 18.0 | 0.00 | 0.02 | 0.02 | 34 | 1014.1 |
| 20260509180021 | 57 | 11 | 8.0 | 14.0 | 0.00 | 0.02 | 0.02 | 35 | 1014.1 |
| 20260509174526 | 56 | 46 | 4.0 | 15.0 | 0.00 | 0.02 | 0.02 | 39 | 1014.1 |
| 20260509173026 | 55 | 26 | 5.0 | 14.0 | 0.00 | 0.02 | 0.02 | 42 | 1013.9 |
| 20260509171514 | 56 | 19 | 6.0 | 14.0 | 0.00 | 0.02 | 0.02 | 39 | 1013.9 |
| 20260509170028 | 55 | 23 | 5.0 | 16.0 | 0.00 | 0.02 | 0.02 | 41 | 1013.9 |
| 20260509164526 | 54 | 88 | 6.0 | 13.0 | 0.00 | 0.02 | 0.02 | 42 | 1013.7 |
| 20260509163029 | 55 | 46 | 4.0 | 12.0 | 0.00 | 0.02 | 0.02 | 45 | 1013.6 |
| 20260509161516 | 53 | 67 | 7.0 | 12.0 | 0.00 | 0.02 | 0.02 | 47 | 1013.4 |
| 20260509160020 | 53 | 60 | 5.0 | 16.0 | 0.00 | 0.02 | 0.02 | 45 | 1013.2 |
| 20260509154524 | 53 | 44 | 7.0 | 14.0 | 0.00 | 0.02 | 0.02 | 46 | 1013.0 |